Weather History for LIMU - September, 2013

Change the Weather History Date:

Thursday, September 19, 2013

  Actual Average Record
Temperature  
Mean Temperature 72 °F -  
Max Temperature 79 °F 69 °F 79 °F (2013)
Min Temperature 64 °F 59 °F 53 °F (2001)
Cooling Degree Days 6    
Growing Degree Days 22 (Base 50)    
Moisture  
Dew Point 60 °F    
Average Humidity 73    
Maximum Humidity 88    
Minimum Humidity 49    
Precipitation  
Precipitation 0.00 in 0.11 in - ()
Sea Level Pressure  
Sea Level Pressure 29.74 in    
Wind  
Wind Speed 10 mph ()    
Max Wind Speed 18 mph    
Max Gust Speed -    
Visibility 7.9 miles    
Events      
Averages and records for this station are not official NWS values.
T = Trace of Precipitation, MM = Missing Value Source: Averaged Metar Reports

Daily Weather History Graph

Daily Weather History Graph

Search for Another Location

Airport or City:

Trip Planner

Search our weather history database for the weather conditions in past years. The results will help you decide how hot, cold, wet, or windy it might be!

Date:

Astronomy

Sep. 19, 2013 Rise Set
Actual Time 7:11 AM CEST 7:30 PM CEST
Civil Twilight 6:42 AM CEST 7:59 PM CEST
Nautical Twilight 6:08 AM CEST 8:32 PM CEST
Astronomical Twilight 5:33 AM CEST 9:07 PM CEST
Moon 7:16 PM CEST (9/19) 7:03 AM CEST (9/19)
Length of Visible Light 13h 16m
Length of Day
12h 19m
Full, 100% of the Moon is Illuminated
Sep 19
Full
Sep 19
Full
Sep 27
Last Quarter
Oct 5
New
Oct 12
First Quarter

Hourly Weather History & Observations

Time (CEST) Temp. Dew Point Humidity Pressure Visibility Wind Dir Wind Speed Gust Speed Precip Events Conditions
12:55 AM 64.4 °F 59.0 °F 83% 29.65 in - North 9.2 mph - N/A   Clear
1:55 AM 64.4 °F 59.0 °F 83% 29.65 in - North 13.8 mph - N/A   Clear
2:00 AM 64 °F 60 °F 82% 29.67 in 12 mi North 13.8 mph - -   Clear
2:55 AM 64.4 °F 60.8 °F 88% 29.65 in - North 10.4 mph - N/A   Clear
3:55 AM 64.4 °F 60.8 °F 88% 29.68 in - NNE 11.5 mph - N/A   Clear
4:55 AM 64.4 °F 60.8 °F 88% 29.65 in - North 12.7 mph - N/A   Clear
5:55 AM 66.2 °F 60.8 °F 83% 29.65 in - North 13.8 mph - N/A   Clear
6:55 AM 64.4 °F 60.8 °F 88% 29.65 in 6.2 mi North 16.1 mph - N/A   Scattered Clouds
7:55 AM 64.4 °F 60.8 °F 88% 29.68 in 6.2 mi North 17.3 mph - N/A   Partly Cloudy
8:00 AM 64 °F 60 °F 83% 29.68 in 12 mi North 17.3 mph - -   Scattered Clouds
8:55 AM 68.0 °F 62.6 °F 83% 29.68 in 6.2 mi North 13.8 mph - N/A   Scattered Clouds
9:55 AM 71.6 °F 62.6 °F 73% 29.71 in 6.2 mi NNE 13.8 mph - N/A   Partly Cloudy
10:55 AM 73.4 °F 62.6 °F 69% 29.71 in 6.2 mi NNE 18.4 mph - N/A   Partly Cloudy
11:55 AM 75.2 °F 60.8 °F 61% 29.74 in 6.2 mi NNE 17.3 mph - N/A   Partly Cloudy
12:55 PM 75.2 °F 60.8 °F 61% 29.77 in 6.2 mi NE 13.8 mph - N/A   Partly Cloudy
1:55 PM 77.0 °F 64.4 °F 65% 29.77 in 6.2 mi North 9.2 mph - N/A   Partly Cloudy
2:00 PM 77 °F 64 °F 55% 29.75 in 12 mi North 9.2 mph - -   Scattered Clouds
2:55 PM 78.8 °F 62.6 °F 57% 29.77 in 6.2 mi North 11.5 mph - N/A   Partly Cloudy
3:55 PM 73.4 °F 64.4 °F 73% 29.77 in 6.2 mi NNE 5.8 mph - N/A   Partly Cloudy
4:55 PM 73.4 °F 66.2 °F 78% 29.77 in - NE 4.6 mph - N/A   Clear
5:55 PM 75.2 °F 59.0 °F 57% 29.80 in - NE 2.3 mph - N/A   Clear
6:55 PM 73.4 °F 55.4 °F 53% 29.80 in - NNE 3.5 mph - N/A   Clear
7:55 PM 69.8 °F 53.6 °F 56% 29.80 in - NNE 4.6 mph - N/A   Clear
8:00 PM 69 °F 54 °F 49% 29.80 in 12 mi NNE 4.6 mph - -   Scattered Clouds
8:55 PM 69.8 °F 55.4 °F 60% 29.83 in - South 1.2 mph - N/A   Clear
9:55 PM 69.8 °F 55.4 °F 60% 29.86 in - NE 1.2 mph - N/A   Clear
10:55 PM 68.0 °F 62.6 °F 83% 29.86 in - NE 3.5 mph - N/A   Clear
11:55 PM 66.2 °F 62.6 °F 88% 29.86 in - NE 4.6 mph - N/A   Clear